Omaha Millard, NE

9:36 PM CDT on May 27, 2017 (GMT -0500)
Millard Municipal

Weather History for KMLE - October, 2011

Change the Weather History Date:

Monday, October 31, 2011

  Actual Average (KOFF) Record (KOFF)
Temperature  
Mean Temperature 47 °F -  
Max Temperature 64 °F 54 °F 75 °F (2000)
Min Temperature 30 °F 36 °F 21 °F (2006)
Degree Days  
Heating Degree Days 18    
Moisture  
Dew Point 27 °F    
Average Humidity 54    
Maximum Humidity 87    
Minimum Humidity 20    
Precipitation  
Precipitation 0.00 in - - ()
Sea Level Pressure  
Sea Level Pressure 30.01 in    
Wind  
Wind Speed 2 mph (SE)    
Max Wind Speed 13 mph    
Max Gust Speed 20 mph    
Visibility 10 miles    
Events      
Averages and records for this station are not official NWS values.
T = Trace of Precipitation, MM = Missing Value Source: NWS Daily Summary

Daily Weather History Graph

Daily Weather History Graph

Search for Another Location

Airport or City:

Trip Planner

Search our weather history database for the weather conditions in past years. The results will help you decide how hot, cold, wet, or windy it might be!

Date:

Astronomy

Oct. 31, 2011 Rise Set
Actual Time 7:54 AM CDT 6:21 PM CDT
Civil Twilight 7:25 AM CDT 6:49 PM CDT
Nautical Twilight 6:53 AM CDT 7:22 PM CDT
Astronomical Twilight 6:21 AM CDT 7:54 PM CDT
Moon 1:03 PM CDT (10/31) 10:57 PM CDT (10/31)
Length of Visible Light 11h 24m
Length of Day
10h 27m
Waxing Crescent, 30% of the Moon is Illuminated
Oct 31
Waxing Crescent
Nov 2
First Quarter
Nov 10
Full
Nov 18
Last Quarter
Nov 25
New

Hourly Weather History & Observations

Time (CDT) Temp. Windchill Dew Point Humidity Pressure Visibility Wind Dir Wind Speed Gust Speed Precip Events Conditions
12:15 AM 39.2 °F - 24.8 °F 56% 30.07 in 10.0 mi Calm Calm - N/A   Clear
12:35 AM 37.4 °F - 26.6 °F 65% 30.08 in 10.0 mi Calm Calm - N/A   Clear
12:55 AM 35.6 °F - 28.4 °F 75% 30.08 in 10.0 mi Calm Calm - N/A   Clear
1:15 AM 35.6 °F - 26.6 °F 70% 30.09 in 10.0 mi Calm Calm - N/A   Clear
1:35 AM 33.8 °F - 28.4 °F 81% 30.08 in 10.0 mi Calm Calm - N/A   Clear
1:55 AM 33.8 °F - 28.4 °F 81% 30.08 in 10.0 mi Calm Calm - N/A   Clear
2:15 AM 33.8 °F - 26.6 °F 75% 30.08 in 10.0 mi Calm Calm - N/A   Clear
2:35 AM 33.8 °F - 28.4 °F 81% 30.09 in 10.0 mi Calm Calm - N/A   Clear
2:55 AM 32.0 °F - 28.4 °F 87% 30.09 in 10.0 mi Calm Calm - N/A   Clear
3:15 AM 32.0 °F - 28.4 °F 87% 30.09 in 10.0 mi Calm Calm - N/A   Clear
3:35 AM 32.0 °F - 28.4 °F 87% 30.09 in 10.0 mi Calm Calm - N/A   Clear
3:55 AM 32.0 °F - 28.4 °F 87% 30.09 in 10.0 mi Calm Calm - N/A   Clear
4:15 AM 32.0 °F - 28.4 °F 87% 30.09 in 10.0 mi Calm Calm - N/A   Clear
4:35 AM 32.0 °F - 28.4 °F 87% 30.08 in 10.0 mi Calm Calm - N/A   Clear
4:55 AM 32.0 °F - 28.4 °F 87% 30.08 in 10.0 mi Calm Calm - N/A   Clear
5:15 AM 32.0 °F - 26.6 °F 80% 30.08 in 10.0 mi Calm Calm - N/A   Clear
5:35 AM 32.0 °F - 26.6 °F 80% 30.09 in 10.0 mi Calm Calm - N/A   Clear
6:15 AM 32.0 °F - 26.6 °F 80% 30.09 in 10.0 mi Calm Calm - N/A   Clear
6:55 AM 30.2 °F - 26.6 °F 86% 30.08 in 10.0 mi Calm Calm - N/A   Clear
7:15 AM 30.2 °F - 26.6 °F 86% 30.08 in 10.0 mi Calm Calm - N/A   Clear
7:35 AM 30.2 °F - 26.6 °F 86% 30.08 in 10.0 mi Calm Calm - N/A   Clear
7:55 AM 30.2 °F - 26.6 °F 86% 30.08 in 10.0 mi Calm Calm - N/A   Clear
8:15 AM 30.2 °F - 26.6 °F 86% 30.08 in 10.0 mi Calm Calm - N/A   Clear
8:35 AM 32.0 °F - 26.6 °F 80% 30.08 in 10.0 mi Calm Calm - N/A   Clear
8:55 AM 33.8 °F - 28.4 °F 81% 30.08 in 10.0 mi Calm Calm - N/A   Clear
9:15 AM 33.8 °F - 26.6 °F 75% 30.08 in 10.0 mi Calm Calm - N/A   Clear
9:35 AM 35.6 °F - 28.4 °F 75% 30.08 in 10.0 mi Calm Calm - N/A   Clear
9:55 AM 37.4 °F - 28.4 °F 70% 30.08 in 10.0 mi Calm Calm - N/A   Clear
10:15 AM 41.0 °F 39.0 °F 28.4 °F 61% 30.07 in 7.0 mi SE 3.5 mph - N/A   Clear
10:35 AM 42.8 °F 41.1 °F 30.2 °F 61% 30.07 in 10.0 mi SE 3.5 mph - N/A   Clear
10:55 AM 46.4 °F 43.5 °F 28.4 °F 50% 30.06 in 7.0 mi SE 5.8 mph - N/A   Clear
11:15 AM 50.0 °F - 26.6 °F 40% 30.06 in 10.0 mi SE 4.6 mph - N/A   Clear
11:55 AM 53.6 °F - 26.6 °F 35% 30.05 in 10.0 mi SSE 8.1 mph - N/A   Clear
12:15 PM 55.4 °F - 26.6 °F 33% 30.04 in 10.0 mi SSE 11.5 mph - N/A   Clear
12:35 PM 59.0 °F - 23.0 °F 25% 30.03 in 10.0 mi SSE 6.9 mph - N/A   Clear
12:55 PM 59.0 °F - 21.2 °F 23% 30.02 in 10.0 mi SSE 10.4 mph - N/A   Clear
1:35 PM 60.8 °F - 21.2 °F 22% 30.00 in 10.0 mi SSE 11.5 mph - N/A   Clear
1:55 PM 60.8 °F - 21.2 °F 22% 29.98 in 10.0 mi SSE 10.4 mph 19.6 mph N/A   Clear
2:15 PM 62.6 °F - 21.2 °F 20% 29.98 in 10.0 mi South 8.1 mph 16.1 mph N/A   Clear
2:35 PM 62.6 °F - 21.2 °F 20% 29.96 in 10.0 mi SSE 12.7 mph - N/A   Clear
2:55 PM 64.4 °F - 23.0 °F 21% 29.95 in 10.0 mi SE 12.7 mph - N/A   Clear
3:15 PM 64.4 °F - 23.0 °F 21% 29.94 in 10.0 mi SSE 10.4 mph - N/A   Clear
3:35 PM 64.4 °F - 23.0 °F 21% 29.93 in 10.0 mi South 11.5 mph - N/A   Clear
3:55 PM 64.4 °F - 23.0 °F 21% 29.93 in 10.0 mi SSE 11.5 mph - N/A   Clear
4:15 PM 64.4 °F - 23.0 °F 21% 29.92 in 10.0 mi SE 12.7 mph 17.3 mph N/A   Clear
4:35 PM 64.4 °F - 23.0 °F 21% 29.92 in 10.0 mi SSE 11.5 mph - N/A   Clear
4:55 PM 64.4 °F - 23.0 °F 21% 29.92 in 10.0 mi SE 11.5 mph - N/A   Clear
5:15 PM 64.4 °F - 24.8 °F 22% 29.91 in 10.0 mi SE 11.5 mph 16.1 mph N/A   Clear
5:35 PM 62.6 °F - 24.8 °F 24% 29.91 in 10.0 mi ESE 11.5 mph - N/A   Clear
5:55 PM 60.8 °F - 26.6 °F 27% 29.91 in 10.0 mi SE 8.1 mph - N/A   Clear
6:15 PM 59.0 °F - 26.6 °F 29% 29.91 in 10.0 mi SE 8.1 mph - N/A   Clear
6:35 PM 59.0 °F - 26.6 °F 29% 29.91 in 10.0 mi SE 6.9 mph - N/A   Clear
7:15 PM 55.4 °F - 26.6 °F 33% 29.91 in 10.0 mi SE 5.8 mph - N/A   Clear
7:35 PM 55.4 °F - 26.6 °F 33% 29.91 in 10.0 mi SSE 3.5 mph - N/A   Clear
7:55 PM 53.6 °F - 28.4 °F 38% 29.91 in 10.0 mi SSE 3.5 mph - N/A   Clear
8:15 PM 53.6 °F - 28.4 °F 38% 29.91 in 10.0 mi SSE 3.5 mph - N/A   Clear
8:35 PM 53.6 °F - 28.4 °F 38% 29.91 in 10.0 mi Calm Calm - N/A   Clear
8:55 PM 53.6 °F - 28.4 °F 38% 29.91 in 10.0 mi Calm Calm - N/A   Clear
9:15 PM 53.6 °F - 28.4 °F 38% 29.91 in 10.0 mi Calm Calm - N/A   Clear
9:35 PM 51.8 °F - 30.2 °F 44% 29.92 in 10.0 mi Calm Calm - N/A   Clear
9:55 PM 50.0 °F - 32.0 °F 50% 29.91 in 10.0 mi Calm Calm - N/A   Clear
10:15 PM 48.2 °F - 32.0 °F 54% 29.91 in 10.0 mi Calm Calm - N/A   Clear
10:35 PM 46.4 °F 45.2 °F 32.0 °F 57% 29.91 in 10.0 mi SSE 3.5 mph - N/A   Clear
10:55 PM 50.0 °F - 32.0 °F 50% 29.91 in 10.0 mi Calm Calm - N/A   Clear
11:15 PM 48.2 °F - 32.0 °F 54% 29.90 in 10.0 mi Calm Calm - N/A   Clear
11:35 PM 46.4 °F - 32.0 °F 57% 29.89 in 10.0 mi Calm Calm - N/A   Clear
11:55 PM 46.4 °F 45.2 °F 32.0 °F 57% 29.89 in 10.0 mi SE 3.5 mph - N/A   Clear